DELTA 1 DEB, 10658

Orbit data source: Space-Track

DELTA 1 DEB, 10658 is space debris in SSO originally from a launch on Thu, 29 Jul 1976 UTC launched from the Air Force Western Test Range (AFWTR). Debris objects in space refer to the collection of defunct objects orbiting the Earth. Examples of debris include non-operational satellites, rocket bodies, and fragments generated from explosions, collisions, or faulty payload assembly.

Loading next visibility...
Identifier
10658, 1976-077U
Orbit
SSO
Country
Flag of USUS
Related business
Manufacturer
Unknown
Mission
Spacecraft
Bus & Motor
Unknown
Mass
Unknown
Launch date (UTC)
1976-07-29 (50 years ago)
Launch vehicle
Unknown
Launch site
Air Force Western Test Range (AFWTR)
Object type
Payload
Rocket body
Debris
Shape & HBR
Unknown shape, 0.7 m
Radar Cross Section
Medium (>0.1 m² and <1 m²)

Expand to show TLE details & history
Last TLE update: 8 hours ago

TLE from 8 hours ago
0 DELTA 1 DEB
1 10658U 76077U   26171.45375601 -.00000036  00000-0  81233-4 0  9996
2 10658 102.4874 158.7643 0056899   5.1047 148.8231 12.29958824240324
Epoch: 2026-06-20T10:53Z
TLE epoch observation values (Epoch: 2026-06-20T10:53:24.519Z)
Latitude
25.11408°
Longitude
-87.32646°
Altitude
1,590.814 km
Speed
7.059 km/s
True Right ascension
22h 58m 46s
True Declination
24° 59' 46"
Sunlit
Object was in daylight at epoch
Visualization orbit readout
Latitude
Unknown
Longitude
Unknown
Altitude
Unknown
Speed
Unknown
Apparent Right ascension
Unknown
Apparent Declination
Unknown
Sunlit
N/A
Visualization observer readout
Local Sidereal Time
06:14:02
Azimuth
Unknown
Elevation
Unknown
Doppler factor
Unknown
Orbital elements
Apogee altitude
1,592.169 km
Perigee altitude
1,501.982 km
Semi-major axis
7,925.212 km
Eccentricity
0.00569
Inclination
102.4874°
RAAN
158.7643°
Arg. of periapsis
5.1047°
True anomaly
149.15859°
Mean anomaly
148.8231°
Eccentric anomaly
148.99105°
Mean motion
3.07629 °/min
Orbital period
117.02 mins
BSTAR
0.000081233
Loading maneuver chart data...
Computing Atmospheric mass density...
Loading historical data...
Loading historical data...
Loading historical data...
Loading historical data...
Loading historical data...
Loading historical data...
Loading historical data...

Documentation

Showing up to 5 results
|